User: anonymous   Login
Location: Unspecified
(0.0000°N, 0.0000°E)
Time: 20:03:45
(UTC+00:00)
Language:

SICRAL 1B - Orbit

View from above orbital plane
View from above orbital plane
View from above satellite
View from above satellite

Ground track
Ground track

The orbit data is extracted from the following two-line orbital elements,

1 34810U 09020A   15048.78108534 0.00000000  00000-0  00000-0 0    04
2 34810   0.0448  80.0860 0003425  41.0613 318.9882  1.00270000    04
Epoch (UTC): 17 February 2015 18:44:45
Eccentricity: 0.0003425
inclination: 0.0448°
perigee height: 35772 km
apogee height: 35801 km
right ascension of ascending node: 80.0860°
argument of perigee: 41.0613°
revolutions per day: 1.00270000
mean anomaly at epoch: 318.9882°
orbit number at epoch: 0

The dashed part of the orbit path shows where the satellite is in the earth's shadow,  

DLR